Back to catalog

PEGASUS DEB

AlivePO
NORAD 39318·DEBRIS·🇺🇸 United States

Launched May 19, 1994 from Vandenberg Space Force Base

Loading…

Next Passes (next 24 hours)

TLE

FreshSource: Space-Track

Epoch: Sep 12, 2026, 13:36 UTC

1 39318U 94029AFD 26255.56731690  .00000930  00000-0  12968-3 0  9996
2 39318  81.9471 347.7625 0185607  91.9270 330.4571 14.65338060290870

Track PEGASUS DEB in real time with AllMySat

Download on the App Store